Terminal Aerodrome Forecast
Issued by NWS

Home | Current Version | Previous Version | Text Only | Print | Product List | Glossary On
Versions: 1 2 3 4 5 6 7 8 9 10 11 12 13 14 15
088
FTPA31 PHFO 282330
TAFHTO
TAF
PHTO 282330Z 2900/2924 12010KT P6SM VCSH SCT025 BKN045
     FM290500 23005KT P6SM VCSH SCT025 BKN045
     FM292000 12010KT P6SM VCSH SCT025 BKN045=

USA.gov is the U.S. government's official web portal to all federal, state and local government web resources and services.